Regional Weather Roundup
Issued by NWS

Home | Current Version | Previous Version | Graphics & Text | Print | Product List | Glossary On
Versions: 1 2 3 4 5 6 7 8 9 10 11 12 13 14 15 16 17 18 19 20 21 22 23 24 25 26 27 28 29 30 31 32 33 34 35 36 37 38 39 40 41 42 43 44 45 46 47 48 49 50
000
ASUS45 KTFX 181519
RWRMT
MONTANA HOURLY WEATHER ROUNDUP
NATIONAL WEATHER SERVICE GREAT FALLS MT
919 AM MDT THU SEP 18 2014

NOTE: "FAIR" INDICATES FEW OR NO CLOUDS BELOW 12000 FEET WITH NO
SIGNIFICANT WEATHER AND/OR OBSTRUCTIONS TO VISIBILITY.

* THESE STATIONS ARE NOT UNDER NWS QUALITY CONTROL. THEY DO NOT
   REPORT WEATHER SUCH AS PRECIPITATION OR FOG.

MTZ001>007-043-181600-
WEST OF THE DIVIDE
CITY           SKY/WX    TMP DP  RH WIND       PRES   REMARKS
KALISPELL      SMOKE     52  48  86 CALM      29.73R
MISSOULA       CLOUDY    57  46  67 CALM      29.83R
BUTTE          CLOUDY    57  48  72 VRB3      29.95F
MULLAN PASS    PTCLDY    57  37  47 VRB3      29.87R
* ESSEX        N/A       49  44  83 N1         N/A
* LINCOLN      N/A       42  38  86 SE2        N/A
* LOOKOUT PASS N/A       58  42  55 SW2        N/A
* POLSON       N/A       58  49  72 SE2G9      N/A
* RONAN APT    CLOUDY    57  52  83 S5         N/A
* SEELEY LAKE  N/A       50  42  74 NW1G6      N/A
* THOMP F APT  PTSUNNY   56  48  75 N6G15      N/A
$$

MTZ008-052>055-181600-
SOUTHWEST MONTANA
CITY           SKY/WX    TMP DP  RH WIND       PRES   REMARKS
BOZEMAN        LGT RAIN  55  52  90 S3        29.98R
DILLON         CLOUDY    54  52  93 NW5       29.92F
W YELLOWSTONE  LGT RAIN  45  45 100 CALM      30.08F
* THREE FORKS  CLOUDY    54  34  47 E5         N/A
* BOULDER HILL N/A       51  45  80 S16        N/A
* MONIDA PASS  N/A       53  51  93 NE2G8      N/A
* RAYNOLDS PAS N/A       53   5  14 N12G18     N/A
* WHITEHALL    N/A       53  47  80 NE6G21     N/A
* WISE RIVER   N/A       50  44  80 S4G11      N/A
$$

MTZ009>010-012-014-046-048-049-054-181600-
EAST SLOPES AND CENTRAL MONTANA
CITY           SKY/WX    TMP DP  RH WIND       PRES   REMARKS
CUT BANK       CLOUDY    57  45  64 W6        29.71S
GREAT FALLS    CLOUDY    66  43  43 S10       29.72R
HELENA         CLOUDY    54  46  74 VRB7      29.84S
MALMSTROM AFB  CLOUDY    68  45  44 SW7       29.73R
* CONRAD       CLOUDY    57  52  83 N/A        N/A
* EAST GLACIER N/A       59  37  44 W10        N/A
* MONARCH      N/A       58  37  46 S11        N/A
* PENDROY      N/A       64  44  48 SW3        N/A
* ROGERS PASS  N/A       62  39  43 SE3G9      N/A
* SAINT MARY   N/A       45  43  93 SE3G8      N/A
* SWEET GRASS  N/A       69  36  30 SW12       N/A
* WHITE SULPH  N/A       61  43  52 S16G25     N/A
$$

MTZ011-013-016-021-035-040-045-047-050-051-181600-
NORTH CENTRAL MONTANA
CITY           SKY/WX    TMP DP  RH WIND       PRES   REMARKS
HAVRE          PTSUNNY   55  52  90 W8        29.66S
LEWISTOWN      CLOUDY    57  46  67 SE6       29.78R
* CHINOOK      PTCLDY    54  52  93 CALM      29.66S
* CHESTER      N/A       54  49  83 N/A        N/A
* DENTON       N/A       63  46  54 S8         N/A
* GEYSER       N/A       59  49  70 S5         N/A
* JUDITH GAP   N/A       55  50  83 SE11       N/A
* LOMA         N/A       57  52  83 N/A        N/A
$$

MTZ017>020-022>027-061-062-181600-
NORTHEAST MONTANA
CITY           SKY/WX    TMP DP  RH WIND       PRES   REMARKS
GLASGOW        PTSUNNY   61  52  72 SE8       29.66S
GLENDIVE       PTCLDY    63  54  73 S9        29.75F
JORDAN         PTCLDY    61  54  78 CALM      29.69S
SIDNEY         PTCLDY    61  54  78 S8        29.73F
WOLF POINT     PTSUNNY   59  52  78 E5        29.67F
* BEAVER HILL  N/A       65  53  65 SE15       N/A
* CIRCLE       N/A       65  55  70 SW2G7      N/A
* LINDSAY DVD  N/A       61  54  78 SE7        N/A
* NAVAJO       N/A       57  50  78 SE9        N/A
* SACO         N/A       55  51  86 E4         N/A
$$

MTZ028>042-056>058-181600-
SOUTHCENTRAL AND SOUTHEAST MONTANA
CITY           SKY/WX    TMP DP  RH WIND       PRES   REMARKS
BAKER          PTCLDY    64  54  70 SE10      29.79F
BILLINGS       CLOUDY    66  46  49 SW21      29.80S
LIVINGSTON     LGT RAIN  57  52  83 W9        29.96R
MILES CITY     PTSUNNY  N/A N/A N/A N/A       29.74R
* LAUREL APT   CLOUDY    70  45  41 SW11G20    N/A
* ROUNDUP APT  CLOUDY    55  48  77 S7         N/A
* ALZADA       N/A       61  52  72 E5         N/A
* HYSHAM       N/A       62  47  58 W7G13      N/A
* LAME DEER    N/A       71  46  41 S6         N/A
* REED POINT   N/A       56  51  83 SE5        N/A
* ROSCOE HILL  N/A       69  37  31 S12G24     N/A
$$

REGIONAL REPORTS...DAKOTAS
CITY           SKY/WX    TMP DP  RH WIND       PRES   REMARKS
WILLISTON      SUNNY     63  50  63 S10       29.73F
DICKINSON      SUNNY     61  52  72 S16       29.79F
BEACH          N/A       61  55  81 S17G22    29.77F
CROSBY         SUNNY     63  50  63 S18G28    29.70F
TIOGA          SUNNY     59  54  84 S22G31    29.78F
WATFORD CITY   SUNNY     64  50  61 S15       29.72F
BISMARCK       SUNNY     61  54  78 SE12      29.87F
GRAND FORKS    FOG       50  50 100 S9        29.97F VSB 1/2
FARGO          CLOUDY    55  52  90 SE9       29.99F
BUFFALO SD     SUNNY     61  52  72 S10       29.77F
RAPID CITY     SUNNY     63  55  75 SE6       29.86S
$$

REGIONAL REPORTS...WYOMING/IDAHO/WASHINGTON
CITY           SKY/WX    TMP DP  RH WIND       PRES   REMARKS
GILLETTE       PTCLDY    70  50  49 SE9       29.89S
SHERIDAN       PTSUNNY   64  48  56 CALM      29.83S
CODY           CLOUDY   N/A N/A N/A N/A        N/A
YELLOWSTONE LA CLOUDY    46  45  96 CALM      30.18F
SALMON         CLOUDY    57  48  72 CALM      29.87S
MULLAN PASS    PTCLDY    57  37  47 VRB3      29.87S
SAND POINT     CLOUDY    54  54 100 CALM      29.70R
SPOKANE        CLOUDY    63  41  45 S13       29.70R
$$

REGIONAL REPORTS...ALBERTA
CITY           SKY/WX    TMP DP  RH WIND       PRES   REMARKS
CALGARY        PTSUNNY   57  45  64 SW6       29.62S
LETHBRIDGE     PTSUNNY   59  48  67 SW9       29.63F
MEDICINE HAT   PTSUNNY   63  52  68 SW12      29.59R
EDMONTON       CLOUDY    57  48  72 W6        29.59R
WATERTON GATE  N/A       50  46  86 NE2        N/A
CARDSTON       N/A       63  45  52 SW9        N/A
MILK RIVER     N/A       57  48  72 W8         N/A
$$

REGIONAL REPORTS...SASKATCHEWAN
CITY           SKY/WX    TMP DP  RH WIND       PRES   REMARKS
SWIFT CURRENT  SUNNY     63  50  63 SW16      29.59F
MOOSE JAW      PTSUNNY   55  50  83 SE9       29.62F
REGINA         PTSUNNY   55  50  83 SE13G22   29.65F
VAL MARIE      N/A       55  50  83 CALM       N/A
ASSINIBOIA     N/A       59  50  72 SE5        N/A
CORONACH       N/A       59  52  78 SE6        N/A

$$



USA.gov is the U.S. government's official web portal to all federal, state and local government web resources and services.